Regional Weather Roundup
Issued by NWS Charleston, SC

Current Version | Previous Version | Graphics & Text | Print | Product List | Glossary On
Versions: 1 2 3 4 5 6 7 8 9 10 11 12 13 14 15 16 17 18 19 20 21 22 23 24 25 26 27 28 29 30 31 32 33 34 35 36 37 38 39 40 41 42 43 44 45 46 47 48 49 50
000
ASUS42 KCHS 101426
RWRCHS

REGIONAL WEATHER ROUNDUP
NATIONAL WEATHER SERVICE CHARLESTON SC
900 AM EST SUN DEC 10 2017

NOTE: "FAIR" INDICATES FEW OR NO CLOUDS BELOW 12,000 FEET WITH NO
SIGNIFICANT WEATHER AND/OR OBSTRUCTIONS TO VISIBILITY.

NOT ALL STATIONS ARE QUALITY CONTROLLED. USE DATA WITH CAUTION...
ESPECIALLY DEWPOINT OBSERVATIONS.

SCZ027-030-031-034>040-042>050-101500-
...SOUTHEAST SOUTH CAROLINA...

CITY           SKY/WX    TMP DP  RH WIND       PRES   REMARKS
N CHARLESTON   SUNNY     35  30  82 NW6       30.27R WCI  30
WATERFRONT PRK   N/A     36  31  82 NW6       30.11R WCI  31
JOHNS ISLAND   FAIR      39  28  65 NW10      30.28R WCI  32
PINOPOLIS        N/A     34  32  93 W7        30.18R WCI  28
MONCKS CORNER  FAIR      36  28  75 NW5       30.27R WCI  32
SUMMERVILLE    FAIR      34  30  86 W3        30.28S
BEAUFORT MCAS  SUNNY     37  31  78 W8        30.30R WCI  31
BEAUFORT ARPT  FAIR      36  30  80 NW9       30.30R HAZE    WCI  29
HILTON HEAD IS SUNNY     37  28  70 SW6       30.30R WCI  33
WALTERBORO     SUNNY     36  30  80 W5        30.30R WCI  32
ALLENDALE      FAIR      36  28  75 CALM      30.29R

...SOUTHERN MIDLANDS AND PEE DEE...

CITY           SKY/WX    TMP DP  RH WIND       PRES   REMARKS
GEORGETOWN     FAIR      36  30  80 W6        30.27R WCI  31
KINGSTREE      FAIR      36  27  69 W8        30.26R WCI  29
ORANGEBURG     SUNNY     34  26  72 NW7       30.27R WCI  28
BARNWELL         N/A     36  30  80 W5        30.28R WCI  32
AIKEN            N/A     32  27  80 W5        30.29R WCI  27
MANNING        FAIR      36  27  69 MISG      30.27R
COLUMBIA       SUNNY     35  28  75 W7        30.25R WCI  29
SUMTER         SUNNY     33  25  73 W7        30.24R WCI  27
FLORENCE       MOSUNNY   35  25  66 NW10      30.25R WCI  27
MYRTLE BEACH   SUNNY     37  31  78 NW8       30.25R WCI  31
N MYRTLE BEACH SUNNY     36  28  73 VRB3      30.23R

$$

GAZ063-065-086>088-099>101-113>116-118-119-134>141-150-101500-
...SOUTHEAST GEORGIA...

CITY           SKY/WX    TMP DP  RH WIND       PRES   REMARKS
SAVANNAH ARPT  SUNNY     35  29  78 W10       30.31R WCI  27
HUNTER AAF     SUNNY     35  31  86 NW8       30.28R WCI  29
FORT STEWART   SUNNY     35  28  75 NW6       30.30R WCI  30
STATESBORO     SUNNY     37  27  69 W6        30.30R WCI  32
SYLVANIA       SUNNY     35  31  83 NW6       30.30R WCI  30
CLAXTON        FAIR      37  31  79 W6        30.31R WCI  32

...CSRA...CENTRAL AND FAR SOUTHEAST GEORGIA...

CITY           SKY/WX    TMP DP  RH WIND       PRES   REMARKS
THOMSON        SUNNY     33  23  65 N8        30.32R WCI  26
AUGUSTA-BUSH   SUNNY     34  26  72 NW8       30.27S WCI  27
AUGUSTA-DANIEL SUNNY     35  23  61 NW9       30.27R WCI  28
SWAINSBORO     FAIR      34  30  86 NW6       30.31S WCI  29
VIDALIA        SUNNY     36  30  80 NW8       30.31R WCI  29
EASTMAN        FAIR      37  20  50 NW7       30.35R WCI  31
HAZLEHURST     FAIR      38  24  58 CALM      30.31R
ALMA           SUNNY     36  27  69 NW9       30.32R WCI  29
WAYCROSS       SUNNY     37  27  66 N8        30.33R WCI  31
JESUP          NOT AVBL
BAXLEY         FAIR      34  27  75 NW8       30.32R WCI  27
BRUNSWICK      SUNNY     36  30  80 NW8       30.33R WCI  29
SAINT SIMONS   SUNNY     38  29  70 NW13G20   30.31R WCI  30

$$

SCZ027-028-034-036>038-045-046-048>050-GAZ119-141-101500-
...LAKE AND SUPPLEMENTAL COASTAL OBSERVATIONS...

STATION/POSITION TIME  TEMP    WIND        PRES    WAVE   SWELL
                       AIR SEA DIR/SP/G            HT/PER HT/PER/DIR
                 (UTC) (F)     (DEG/KT/KT) (MB)    (FT/S) (FT/S/D)
WINYAH BAY       1330   35     300/  5     1024.0S
LAKE MURRAY      1330   35     280/  6/ 11 1023.4R
ACE BASIN NERRS  1345   35     300/  3     1025.0
FORT PULASKI     1400   36 56  320/ 12/ 15 1026.3
SAPELO ISLAND    NOT AVBL

$$

ANZ835-935-AMZ111-154-330-350-352-354-370-450-454-472-101500-
...C-MAN AND BUOY OBSERVATIONS...

STATION/POSITION TIME  TEMP    WIND        PRES    WAVE   SWELL
                       AIR SEA DIR/SP/G            HT/PER HT/PER/DIR
                 (UTC) (F)     (DEG/KT/KT) (MB)    (FT/S) (FT/S/D)
BUOY 41004       1410      73  350/ 16/ 21 1024.1
BUOY 41008       1350   41 61  320/ 16/ 19 1025.5R   3/ 4
FOLLY BEACH CMAN 1400   37     310/  5/  6 1025.3R
CAPERS NEARSHORE 1408   38     320/ 10/ 14 1024.6R
FRIPP NEARSHORE  1408   39 56  300/ 14/ 21 1026.0R


STATION/POSITION TIME  TEMP    WIND        PRES    WAVE   SWELL
                       AIR SEA DIR/SP/G            HT/PER HT/PER/DIR
                 (UTC) (F)     (DEG/KT/KT) (MB)    (FT/S) (FT/S/D)
5E ST. MARYS GA  1400      60                N/A     3/ 4   2/ 70/11
FRYING PAN BUOY  1410   44 66  330/ 19/ 25 1022.9
BUOY 41025       1410   44 66  310/ 21/ 27 1020.3
CAPE LOOKOUT NC  1400          310/ 15/ 19 1021.5R
BUOY 41002       1350   61 75  310/ 19/ 25 1018.8R  12/ 9   3/180/17
BUOY 41010       NOT AVBL
ST AUGUSTINE FL  1400   41 61  340/ 11/ 14 1027.0R


$$




USA.gov is the U.S. government's official web portal to all federal, state and local government web resources and services.